Theta_e
334 327 323 325 314 315 312 307 296 297 297 293 294 295 294 297 301 300 302 304 301 327 328 331 327 319 312 314 316 328 328 323 323 315 314 332 344 346 347 348 349 350 350 352 354 355 354 353 353 353 353 353 353 353 353 352 353 352 351 351 351 351 351 351 351 351 352 352 352 351 352 352 351 351 350 350 349 349 348 348 347 349 349 348 347 346 346 346 346 346 346 346 346 346 346 345 344
327 317 320 321 315 312 306 303 298 296 294 292 294 295 297 299 300 305 310 308 304 326 330 331 332 333 332 332 332 331 328 332 332 332 335 341 344 345 348 349 349 349 350 353 354 356 354 354 353 353 353 353 353 353 352 352 352 352 352 351 352 352 352 352 352 351 351 351 351 352 352 351 351 350 350 349 350 349 350 349 349 349 349 348 348 348 347 347 347 347 346 346 346 346 346 345 345
321 315 315 315 310 309 306 303 293 294 291 288 293 295 297 298 308 315 317 315 325 328 329 328 330 329 328 329 325 327 324 336 335 337 335 342 337 342 347 349 350 351 352 354 354 353 354 354 352 352 353 353 353 353 353 353 352 353 353 352 352 352 352 352 352 352 352 352 351 351 351 351 350 350 350 350 349 349 350 349 348 348 348 348 347 347 347 347 346 347 346 346 345 345 346 345 345
316 316 314 313 305 306 302 298 296 294 290 292 292 295 296 303 313 317 323 326 329 328 325 326 325 331 328 324 326 332 330 331 337 336 333 337 341 345 347 348 352 352 354 353 354 354 355 354 353 352 352 352 352 353 353 353 353 352 353 352 353 353 352 352 352 352 351 351 351 351 351 350 350 351 351 350 349 349 349 349 348 348 348 347 346 346 346 346 345 345 345 345 345 346 346 345 345
317 314 310 310 306 301 301 296 295 294 291 294 292 294 298 303 303 302 316 319 320 326 326 327 326 331 334 330 331 325 329 337 337 340 338 342 346 346 347 349 351 351 351 353 353 354 355 353 353 352 352 352 352 352 353 353 353 353 353 352 353 353 352 352 352 351 351 351 351 351 351 350 349 349 351 350 349 349 348 349 349 348 347 347 347 346 346 345 345 345 345 346 347 347 345 345 346
308 309 310 308 304 305 300 293 293 293 296 295 294 297 299 301 301 302 303 305 306 322 328 327 325 328 327 330 334 331 336 328 337 339 341 341 345 347 348 350 350 349 351 352 353 354 354 353 352 352 352 351 351 352 352 352 352 352 352 352 352 352 351 351 350 351 351 351 351 351 349 349 349 349 349 349 349 349 349 348 348 349 347 347 347 346 346 346 345 345 346 347 348 347 347 346 345
308 307 307 305 302 304 296 294 293 295 297 297 297 298 300 301 301 301 303 303 324 327 329 327 331 330 325 330 335 337 340 341 339 340 343 343 346 347 348 348 348 348 350 352 353 353 354 352 352 352 353 352 352 352 352 352 352 352 352 352 351 351 351 350 350 351 350 351 351 350 350 350 350 349 349 349 349 348 348 349 347 347 347 347 347 347 347 347 346 345 347 347 347 346 345 345 345
308 305 303 301 297 298 295 295 295 295 296 297 299 299 302 302 302 301 302 301 304 319 328 331 330 327 326 335 325 337 340 342 343 344 344 344 345 347 348 347 346 347 349 352 354 354 353 351 352 352 352 352 352 352 352 352 352 351 350 352 351 351 350 350 350 350 351 351 350 350 350 349 348 349 348 348 349 348 347 348 347 347 347 347 347 346 347 346 347 347 347 346 346 346 346 345 345
306 305 300 300 296 295 294 294 295 296 297 299 300 302 306 304 303 302 301 303 317 326 327 329 330 323 326 329 329 334 336 342 345 344 343 343 344 346 346 346 346 347 349 351 353 354 351 351 352 352 352 352 351 351 352 351 351 351 351 351 351 350 350 350 350 350 351 351 351 350 349 348 348 348 349 349 348 348 348 347 348 347 347 347 346 347 347 347 346 346 345 346 346 345 345 344 343
304 303 299 298 297 292 292 294 293 296 296 300 300 302 303 302 302 303 302 301 303 326 327 330 329 325 329 325 329 333 335 341 343 341 342 343 344 345 346 347 349 348 349 350 352 352 352 353 351 351 351 352 352 352 352 351 351 351 351 352 351 350 351 350 350 351 351 351 350 349 348 349 349 350 349 348 348 348 348 347 349 347 346 346 347 347 346 346 346 346 345 345 344 344 344 343 343
301 300 299 297 293 292 291 293 293 297 297 300 300 302 302 302 300 300 301 302 314 325 327 330 327 327 328 327 330 337 339 341 340 336 341 343 345 345 345 348 349 350 348 350 352 352 352 353 353 351 351 352 351 351 351 352 352 351 351 351 351 351 350 350 350 350 350 350 350 350 349 349 349 349 349 348 348 348 348 348 348 347 346 347 347 346 346 346 346 345 344 343 343 342 342 342 342
299 299 298 295 293 292 293 292 294 297 299 298 300 302 301 299 299 298 299 305 322 327 327 331 325 331 326 326 328 334 338 338 338 339 341 343 343 345 345 346 349 349 351 351 352 352 353 353 352 353 352 352 351 351 351 352 351 351 351 351 351 350 350 349 350 350 350 350 349 349 349 350 349 349 348 348 348 348 348 347 347 347 346 346 345 346 346 345 345 344 343 342 341 341 341 342 342
301 297 297 295 294 293 293 293 295 297 299 299 299 301 301 300 306 300 303 317 326 324 325 329 332 330 323 325 332 334 334 336 338 340 342 342 344 343 345 347 348 349 350 352 351 350 351 351 352 351 352 352 351 351 351 351 351 350 350 351 350 350 350 350 350 350 349 349 349 349 350 349 349 348 348 348 348 347 347 347 347 347 345 345 344 346 346 345 344 343 342 341 341 341 340 341 342
302 299 298 293 292 294 293 294 294 295 297 299 299 300 301 309 312 321 322 321 323 322 327 334 332 331 326 329 328 328 333 336 338 340 341 342 342 342 343 346 346 347 348 349 348 349 350 350 352 352 352 353 353 352 352 351 351 350 350 350 350 350 350 350 349 349 349 349 349 349 349 349 348 348 348 348 348 347 347 347 346 346 346 345 345 346 346 345 343 342 341 341 341 340 340 340 341
303 299 300 296 293 293 294 293 295 295 296 298 299 298 312 320 314 323 324 321 323 331 334 335 333 326 321 324 323 329 332 335 337 340 340 341 341 341 343 344 346 346 347 347 348 349 348 351 350 352 352 351 350 351 351 351 350 350 349 350 349 349 349 349 349 349 349 349 349 349 348 348 348 347 347 347 347 346 346 346 346 346 346 346 344 345 345 345 343 342 341 341 341 341 341 341 341
303 300 299 295 292 293 294 294 293 295 297 298 300 299 307 321 325 322 323 323 327 329 331 325 332 323 329 328 329 335 334 336 338 339 339 338 338 339 341 342 342 344 345 346 345 347 348 348 349 349 349 350 351 352 352 351 351 350 350 349 349 349 349 349 348 349 349 349 349 348 348 349 348 349 347 348 346 346 346 346 345 345 345 346 344 346 345 344 343 343 342 341 341 341 340 340 341
301 302 296 294 292 292 294 295 295 295 299 299 299 300 300 312 323 326 330 331 326 325 327 327 328 333 328 332 336 336 335 337 338 338 337 335 335 335 337 338 340 341 343 343 346 347 347 347 348 348 349 349 350 350 350 350 350 350 350 350 349 349 349 349 349 348 349 348 348 348 347 349 350 349 349 350 346 348 346 345 345 345 345 345 345 345 344 343 343 343 342 341 342 341 339 339 339
301 298 296 293 294 293 297 296 297 298 298 300 300 298 300 304 323 326 329 326 325 326 326 329 332 332 336 337 338 337 336 335 336 334 333 332 334 332 333 335 336 336 339 342 345 347 346 347 347 346 348 348 348 349 349 349 349 350 348 350 347 350 349 349 349 349 348 349 348 348 348 348 348 349 348 345 350 347 345 342 342 343 343 344 343 345 344 343 343 343 342 342 341 339 337 340 339
300 296 295 294 293 297 299 299 299 298 299 299 299 298 298 300 323 322 320 320 322 321 324 326 325 331 334 336 336 334 335 334 334 334 332 331 331 331 331 333 334 336 337 340 343 344 345 346 347 347 346 347 347 348 348 349 349 350 349 349 349 348 349 349 348 348 348 347 347 346 347 348 347 347 349 348 348 345 344 341 341 341 342 342 341 343 344 344 343 343 343 342 339 336 341 340 337
299 298 294 295 297 298 297 299 299 299 299 300 300 298 298 299 308 314 317 320 321 321 321 323 325 326 329 331 333 333 333 332 333 334 333 332 333 331 331 331 332 335 336 339 342 343 345 344 345 345 344 346 347 346 346 345 348 348 347 345 348 348 347 348 348 348 347 347 346 348 348 347 346 347 343 345 344 348 345 342 341 339 339 339 340 342 343 343 344 343 343 341 340 342 341 338 336
299 297 295 297 297 296 300 298 300 299 298 299 298 298 299 299 300 310 320 318 318 320 325 325 324 327 328 331 332 332 332 332 333 334 334 333 333 333 331 332 332 334 336 340 342 342 343 344 345 343 342 344 344 344 346 343 344 346 345 347 347 346 345 346 347 347 347 347 346 346 346 345 345 345 348 348 348 348 347 346 346 344 344 344 339 345 344 343 344 345 343 341 340 341 339 339 338
298 298 299 298 295 297 301 301 298 299 298 298 297 299 299 299 308 315 320 312 310 317 323 327 329 330 329 330 331 332 331 331 332 332 333 332 331 330 332 333 336 336 338 337 339 339 342 343 343 342 342 342 344 345 343 344 345 345 344 345 345 346 345 345 347 346 347 347 346 345 345 344 344 344 347 348 348 348 346 346 346 346 345 345 339 344 344 344 345 344 341 340 339 340 340 339 338
296 297 296 297 298 298 300 299 298 297 298 298 297 299 299 299 302 312 312 308 309 317 322 327 331 332 333 334 332 331 331 331 331 332 333 332 331 331 330 331 332 333 336 337 338 340 341 342 341 342 342 343 344 344 344 344 344 345 345 344 344 344 345 343 345 345 345 344 344 344 344 342 342 343 344 345 346 346 345 345 345 346 346 346 346 345 345 345 345 345 342 340 340 340 338 337 337
298 297 296 298 296 298 299 300 297 297 297 298 299 298 298 298 298 312 317 324 326 327 325 329 332 333 334 332 332 331 331 331 331 333 334 334 333 332 331 331 334 336 337 338 339 339 340 341 342 338 340 343 342 343 343 342 344 343 344 344 344 344 343 343 343 343 344 343 344 344 344 343 341 341 341 342 344 345 344 344 344 344 345 345 344 345 344 343 343 343 341 340 339 339 336 337 336
297 297 297 298 295 299 299 297 296 296 296 298 297 297 299 299 299 314 316 323 327 329 330 331 331 332 332 332 332 332 331 331 331 333 334 334 335 334 332 333 335 336 335 337 338 337 339 338 338 336 336 339 341 342 339 341 342 343 343 343 343 343 342 343 342 343 343 343 344 344 344 343 342 342 342 342 343 343 342 342 343 343 342 343 341 342 342 341 340 340 340 339 340 339 337 337 335
297 298 297 296 297 298 297 297 298 297 297 296 297 298 298 298 308 310 321 323 327 329 329 330 330 329 330 331 332 332 331 331 332 332 332 334 335 333 331 331 334 334 335 336 337 337 338 337 335 338 338 340 340 339 340 341 341 342 341 343 343 343 343 342 342 343 343 344 343 343 344 344 343 343 342 341 342 341 341 342 341 340 340 341 342 341 342 341 339 339 339 339 337 337 335 336 335
297 297 297 298 298 296 299 298 298 294 297 297 298 298 297 300 311 303 321 325 327 327 326 328 328 328 330 331 333 333 333 332 332 333 334 333 334 332 331 332 331 333 334 334 334 332 334 336 337 338 339 339 340 338 339 340 341 340 340 342 342 342 341 341 341 342 342 344 345 344 340 340 341 341 340 339 342 341 341 340 341 341 340 341 343 343 342 340 341 340 339 338 337 336 335 336 333
296 297 297 297 296 296 297 295 296 296 299 296 299 296 299 307 308 303 323 326 327 325 325 326 327 328 329 331 332 333 333 333 333 332 330 331 331 332 331 329 329 331 332 329 331 334 336 337 337 339 339 340 341 338 340 338 339 339 340 340 341 342 342 341 341 342 344 344 344 342 338 338 337 334 336 338 341 340 340 340 339 340 339 340 342 341 342 341 340 339 339 339 339 338 337 337 334
297 297 295 297 295 298 297 297 296 296 298 296 299 297 297 305 304 309 325 325 325 324 323 325 326 327 329 330 331 332 331 331 330 330 331 333 333 330 327 329 328 330 332 332 334 335 335 337 339 339 340 341 341 340 339 340 340 339 340 340 340 341 341 341 340 341 341 338 336 332 333 334 336 335 336 335 334 334 336 336 335 337 338 339 340 341 341 341 340 339 339 339 338 337 337 333 332
297 296 295 295 295 295 297 294 294 295 297 295 298 292 295 299 304 320 325 324 324 322 322 324 325 327 328 329 330 329 329 328 328 330 331 332 331 329 327 329 330 331 331 333 335 336 339 341 342 341 342 341 341 341 341 340 340 341 341 341 341 340 340 340 341 339 336 334 336 336 336 335 335 333 333 333 332 332 331 332 334 335 336 336 336 338 338 338 338 338 338 337 335 335 334 332 332
295 294 295 293 292 292 295 295 295 296 295 295 298 292 295 296 298 313 324 325 322 320 321 323 324 325 327 328 328 327 326 328 328 329 330 331 329 328 327 330 332 332 331 333 335 337 340 341 342 341 343 342 342 341 340 340 341 341 341 340 340 340 339 339 339 339 336 334 335 335 335 336 333 334 333 333 333 332 332 333 336 336 336 336 336 337 338 338 337 336 336 337 335 335 332 331 332
294 292 291 291 291 294 296 297 296 297 295 296 297 293 295 297 298 319 324 324 322 320 321 322 323 324 326 327 326 326 325 326 327 328 329 328 327 326 328 328 330 330 331 333 335 338 339 341 342 341 341 342 342 341 342 341 341 340 340 340 340 340 339 339 339 338 336 336 335 334 335 335 334 333 333 334 333 333 333 333 337 337 336 336 337 337 337 336 336 336 336 336 332 330 330 331 333
293 292 292 290 290 293 295 296 296 298 296 296 297 293 294 296 298 319 324 323 321 320 320 322 322 323 324 325 325 325 324 324 326 327 328 326 326 328 330 327 329 332 333 334 336 337 338 339 343 343 342 341 340 341 340 339 339 339 338 338 338 339 338 337 337 338 337 337 336 336 337 337 336 336 336 336 336 334 335 336 336 335 336 336 336 336 336 336 336 334 334 335 334 333 330 329 331
292 292 292 292 291 293 293 298 296 295 296 295 296 294 296 297 301 320 322 322 321 319 319 321 321 322 324 324 325 324 324 324 325 327 328 326 326 328 331 329 331 334 334 336 338 339 338 339 341 343 339 339 340 340 339 337 336 336 336 337 337 336 335 337 337 338 338 337 337 336 337 336 336 335 335 335 336 335 335 335 335 335 334 333 334 335 336 335 335 336 333 332 332 332 332 330 330
290 291 292 292 291 292 293 293 295 295 294 295 295 295 296 296 309 320 321 322 321 319 320 321 321 321 322 322 324 324 324 325 327 329 328 328 327 328 331 330 333 334 334 335 337 339 340 339 341 341 340 340 339 338 336 334 333 333 335 335 335 334 334 335 337 337 337 337 336 336 335 335 335 334 334 334 334 335 334 334 335 334 334 333 334 335 334 334 333 334 332 329 331 331 331 331 332
292 292 292 292 292 293 293 296 296 296 296 295 294 294 295 296 312 319 321 322 320 320 322 321 321 321 321 322 323 323 324 325 329 329 329 329 329 329 331 330 331 332 332 335 335 336 339 340 342 340 341 339 337 335 335 334 335 334 333 334 333 333 334 334 336 335 336 335 335 334 333 334 334 334 333 333 334 334 334 334 333 333 333 333 333 333 333 333 332 331 332 330 328 329 328 329 330
292 292 292 291 292 293 294 294 296 296 295 296 295 296 295 297 311 318 321 322 321 320 320 320 320 320 320 321 322 323 324 326 328 328 329 328 327 330 331 331 330 330 330 332 333 334 337 339 340 339 339 338 336 334 334 334 333 333 334 335 333 332 332 334 334 335 336 335 335 334 334 333 333 333 332 332 333 333 332 332 332 333 333 331 331 331 333 332 332 333 332 331 330 328 327 329 329
293 292 291 292 291 293 296 295 295 299 297 294 292 293 294 297 310 318 320 320 318 319 319 320 320 320 321 321 322 323 325 327 326 326 327 327 327 329 330 330 329 328 329 331 332 334 336 339 340 339 338 339 338 337 336 335 336 335 334 332 332 332 332 332 331 334 335 335 335 333 334 333 333 334 332 332 333 333 332 331 332 332 331 330 330 331 331 331 331 332 331 328 330 329 329 331 331
294 293 293 292 294 293 294 293 295 297 295 294 292 293 295 300 309 316 318 318 320 321 321 321 320 320 320 321 322 323 324 324 325 326 326 327 328 328 329 330 329 330 330 330 333 335 336 337 340 336 337 336 337 336 335 332 331 332 333 331 330 326 327 331 330 330 331 331 332 333 333 334 334 333 333 332 332 332 332 332 331 332 332 331 330 331 332 331 330 331 330 330 328 330 329 331 330
294 293 292 292 292 291 291 296 296 297 295 295 292 294 298 304 308 312 309 317 317 321 322 322 322 321 320 321 322 323 323 324 324 325 325 327 327 328 328 329 329 330 329 330 331 333 334 336 336 335 335 336 334 334 333 332 330 329 330 329 328 329 325 327 327 327 328 328 327 328 329 331 333 334 332 332 332 331 332 332 331 331 331 332 331 331 330 330 330 329 330 331 330 328 326 327 330
294 294 293 293 291 293 293 294 296 298 296 298 296 296 297 302 304 309 308 308 316 318 321 322 322 323 323 324 324 324 324 324 325 325 325 326 326 327 327 329 329 329 330 330 330 331 332 334 334 334 333 333 333 332 331 330 328 327 327 327 327 326 327 327 327 325 328 327 326 327 326 327 329 331 332 333 333 331 331 331 331 330 330 331 331 331 330 330 330 331 330 330 330 329 327 327 328
293 295 295 295 296 295 293 295 295 295 293 297 293 289 290 294 300 307 309 310 311 314 317 318 320 321 322 321 321 323 325 326 326 325 325 326 326 327 328 328 328 328 330 331 331 331 332 332 332 332 331 331 331 331 331 330 328 327 326 325 325 324 323 324 323 323 324 325 323 325 324 325 327 330 332 334 333 331 330 329 330 330 330 331 331 331 330 330 330 330 330 331 329 329 329 326 325
291 295 296 296 295 295 295 293 295 291 289 294 295 290 287 295 294 303 307 307 310 312 315 317 319 320 320 320 321 321 322 323 324 325 325 325 326 326 327 328 328 328 329 329 328 328 329 330 331 330 330 330 330 330 330 330 329 330 331 330 329 326 323 323 324 326 325 323 324 324 324 326 326 331 332 334 335 334 332 330 330 331 331 332 331 331 330 329 329 329 330 331 330 329 329 326 325
292 297 294 294 293 294 295 295 295 293 294 295 294 294 291 290 293 296 296 302 307 309 312 316 318 320 320 321 321 321 321 322 323 324 324 325 326 326 326 327 328 328 328 327 327 327 328 328 328 328 329 328 328 329 329 331 329 329 329 328 328 326 325 322 324 324 325 323 323 323 324 325 326 329 331 331 332 333 334 333 333 333 332 332 331 330 328 328 329 328 329 330 330 330 329 328 327
295 294 294 293 295 297 295 295 295 294 293 291 295 294 291 290 293 296 298 299 302 305 308 312 316 318 320 321 321 322 322 323 324 324 324 324 325 326 327 327 328 328 328 327 327 328 329 328 327 327 327 327 327 329 328 328 329 328 328 327 325 325 325 324 324 324 322 323 322 323 324 323 325 326 326 328 329 330 331 332 333 332 332 331 330 329 329 329 329 329 329 329 329 329 330 329 327
293 294 295 294 294 293 295 295 294 293 291 287 292 293 289 289 296 295 295 298 299 303 306 309 313 316 317 319 320 322 322 323 324 325 325 325 325 326 328 328 327 329 330 330 330 330 328 326 325 325 325 324 325 326 326 326 326 327 327 328 326 324 324 324 324 323 322 323 322 322 323 324 325 325 325 325 326 327 328 329 329 330 331 330 328 329 328 329 330 330 330 330 330 329 329 330 327
294 294 296 294 294 295 294 294 294 292 285 289 290 291 291 287 293 295 296 297 297 299 300 301 305 311 315 318 319 320 320 321 321 322 323 324 325 326 327 327 327 329 330 330 329 329 328 327 326 323 322 322 323 323 324 324 325 327 328 328 327 325 324 324 322 322 321 322 321 321 322 323 324 324 325 325 325 325 327 327 328 328 329 328 326 326 328 327 328 328 327 328 328 329 328 327 326
295 295 294 294 293 295 294 293 294 286 284 289 289 290 292 286 290 296 298 299 299 299 300 301 301 303 310 314 317 319 320 320 320 320 321 322 323 325 327 326 327 328 328 328 329 329 327 326 324 322 322 322 322 322 324 324 324 325 327 329 328 327 326 324 323 322 321 321 321 320 320 322 322 323 324 324 324 324 326 326 326 326 325 326 325 326 326 326 325 324 324 324 323 323 325 326 326
295 294 294 289 286 286 283 288 283 284 284 289 291 291 289 290 295 297 300 302 304 305 304 304 304 302 303 308 314 317 319 319 319 320 320 321 322 324 325 326 327 327 327 328 329 329 325 323 323 322 322 323 323 324 324 324 324 324 325 327 328 328 327 326 324 323 323 321 321 320 320 319 320 321 321 322 321 323 324 325 326 325 324 325 324 323 323 323 323 322 323 322 323 323 323 323 320
292 293 292 287 283 280 276 282 283 285 289 290 291 291 289 292 295 297 300 303 305 307 308 308 307 306 305 308 314 316 317 318 318 318 318 319 321 323 325 326 326 328 328 329 328 322 322 322 322 319 317 318 319 320 321 321 322 323 325 327 327 326 326 327 325 322 323 322 322 321 320 320 320 321 321 321 321 322 322 322 323 323 322 322 322 323 322 322 323 320 322 322 321 321 322 322 320
293 293 293 291 288 283 277 282 279 283 286 289 290 288 287 288 292 299 302 303 307 308 308 309 309 309 311 312 313 314 315 316 316 316 316 317 319 322 324 325 326 327 328 328 323 320 321 321 321 318 317 318 320 321 320 321 321 322 322 325 326 327 326 325 324 324 322 322 322 322 322 322 321 321 320 322 322 322 322 323 323 323 322 322 322 322 321 321 321 321 320 321 320 320 320 320 319
291 291 294 291 288 294 285 285 287 287 286 285 288 287 290 293 298 300 301 306 307 308 308 309 310 311 312 312 313 313 314 314 316 317 319 319 317 318 320 323 326 325 326 324 319 319 320 321 320 320 319 318 320 320 321 322 322 323 323 324 325 325 324 325 323 322 323 324 323 322 322 322 322 321 322 323 322 323 322 322 322 322 322 322 321 320 320 320 321 321 319 320 318 318 320 319 318
291 290 290 291 296 293 284 283 284 282 285 284 286 289 293 297 296 300 303 305 305 307 308 309 310 311 313 312 313 314 315 315 317 317 319 318 314 313 316 317 320 323 324 318 317 319 320 320 320 320 320 319 321 321 322 322 323 323 323 324 324 324 324 324 323 323 322 322 321 322 323 322 323 323 322 324 323 323 323 323 322 322 323 323 322 321 320 320 320 320 319 318 318 318 319 317 319
291 288 291 292 295 297 292 284 283 283 282 283 286 286 290 290 288 297 302 303 304 306 306 308 310 312 312 313 314 315 315 317 318 317 316 315 315 314 314 316 321 324 321 316 316 319 320 320 320 321 321 320 322 322 321 321 321 323 323 323 324 324 325 325 324 323 324 322 321 319 320 320 322 322 323 323 324 323 324 322 323 322 323 323 322 321 320 320 320 319 319 318 317 319 318 318 318
294 293 297 292 286 285 288 287 278 279 277 281 285 284 287 290 291 294 297 301 303 305 306 307 308 309 310 311 312 314 314 315 315 315 316 316 316 315 314 315 317 322 324 318 317 319 320 321 322 321 320 321 322 322 321 321 322 321 321 323 324 323 324 325 325 325 324 323 320 318 318 322 323 322 322 323 322 322 322 321 323 322 322 322 321 321 321 320 320 318 319 317 317 319 316 316 317
293 294 292 292 295 292 286 287 290 288 279 277 281 285 285 292 294 296 298 302 304 305 305 307 307 307 307 309 310 312 314 314 313 314 315 314 312 311 311 313 316 319 320 319 318 320 322 324 324 322 322 322 323 323 322 322 322 322 322 323 324 323 323 323 324 324 323 323 320 318 319 321 323 323 323 324 322 321 321 320 321 321 321 321 320 320 320 321 321 319 318 317 317 318 315 315 315
290 292 289 292 291 291 292 289 287 286 281 281 281 280 287 293 294 294 297 299 304 306 306 306 306 307 308 309 310 311 312 313 314 313 313 313 313 312 312 314 316 318 319 319 319 320 321 323 324 323 322 322 323 325 323 322 323 323 323 322 323 323 323 323 323 324 324 324 322 319 321 322 321 322 322 322 321 320 319 320 319 319 319 320 320 320 320 321 320 320 319 318 316 316 314 315 315
292 292 290 291 288 287 284 282 286 286 287 280 280 281 290 293 297 297 298 299 299 301 306 306 307 308 309 309 309 310 311 312 312 310 310 311 313 313 313 314 316 317 318 318 320 321 322 322 322 322 322 323 324 323 323 322 323 324 324 324 324 324 324 323 324 324 325 325 322 321 321 320 321 321 322 321 321 321 321 319 319 318 319 318 318 318 318 319 318 319 320 319 318 315 315 315 316
Wind_Speed
2 1 1 1 1 2 3 0 5 2 2 4 3 4 1 2 2 3 4 3 3 3 3 2 2 5 5 2 3 6 5 7 2 5 1 3 6 12 13 15 16 17 17 14 14 15 16 17 17 19 18 19 18 19 19 20 20 19 19 18 17 15 16 15 15 15 15 15 14 14 14 14 15 15 15 15 15 15 15 15 16 16 16 16 15 14 15 14 13 13 13 13 13 13 12 13 12
1 1 2 1 2 3 4 1 1 2 1 2 6 1 1 2 2 2 5 3 1 5 3 7 9 8 9 9 9 5 8 7 4 3 4 7 9 11 12 15 16 18 15 14 13 14 14 16 17 18 20 20 18 19 19 19 20 20 20 19 18 16 16 15 14 14 14 14 14 14 14 14 15 15 15 15 13 14 14 15 16 16 16 15 15 15 14 13 13 13 13 13 12 13 13 12 12
1 2 4 1 2 2 4 1 3 0 5 5 4 4 2 3 2 3 2 3 6 5 2 4 6 6 3 2 4 8 4 3 7 6 5 9 12 9 13 14 14 16 16 12 12 14 13 15 16 17 20 20 19 19 20 19 19 19 19 18 17 17 15 15 13 13 13 13 14 14 15 14 15 15 14 14 13 12 11 13 16 16 15 15 15 14 14 13 13 13 13 13 12 12 12 12 12
2 1 1 2 4 3 4 1 0 4 6 3 4 3 4 4 4 2 3 7 6 2 1 3 2 4 1 7 5 4 6 4 4 7 6 9 7 12 13 14 14 14 13 12 12 12 12 15 15 16 20 20 20 19 19 20 20 19 19 18 16 15 14 13 13 13 13 14 14 14 14 14 14 14 15 15 14 12 11 11 13 16 15 14 14 14 14 13 13 13 13 13 13 13 12 12 12
2 1 1 1 2 3 3 1 1 1 7 5 1 2 4 4 3 1 4 3 2 3 2 4 5 4 7 6 2 1 3 7 6 3 7 7 10 11 14 15 14 14 13 13 12 13 14 18 15 15 18 21 20 20 19 19 19 19 18 18 17 15 14 14 14 15 14 14 14 14 14 14 14 14 14 15 14 14 12 11 11 14 14 13 13 12 12 13 13 13 12 13 14 14 13 11 10
2 1 0 2 2 2 3 3 3 7 3 3 1 3 4 3 3 3 4 6 4 4 4 4 2 5 4 4 2 2 4 3 5 6 8 9 12 14 15 13 13 13 13 12 12 11 14 16 14 14 15 18 20 19 19 19 18 18 18 18 17 15 15 14 15 15 15 14 14 13 13 13 13 13 14 14 13 13 12 10 10 12 14 14 12 12 12 12 12 12 12 13 13 13 13 11 9
3 3 1 2 2 1 3 3 6 6 3 4 1 2 4 3 5 5 6 4 3 3 3 5 10 12 8 2 5 4 3 3 6 6 6 12 13 13 14 13 13 14 14 12 12 12 16 16 15 14 15 16 17 18 18 18 19 18 18 18 18 17 16 14 13 14 14 14 13 13 13 13 13 13 13 13 12 11 11 10 12 14 13 13 13 12 12 11 11 12 12 13 13 13 12 10 8
2 2 1 3 2 1 2 3 5 3 1 5 2 5 3 4 6 3 5 2 2 4 5 8 5 6 5 2 3 3 4 2 7 11 13 12 13 12 13 13 14 14 13 13 12 11 18 17 16 16 17 16 17 17 17 17 17 16 16 17 17 16 16 14 13 13 12 12 13 13 13 12 12 13 12 12 12 11 11 11 12 13 13 13 13 12 12 12 12 12 13 12 12 12 12 11 9
1 1 0 2 3 2 1 4 3 2 7 5 7 7 11 6 6 6 7 5 0 3 9 9 5 4 4 6 5 2 4 6 12 14 13 13 13 13 10 13 14 13 14 13 12 13 15 16 16 17 18 18 17 17 17 17 16 16 17 16 16 14 14 13 13 13 11 11 11 11 12 12 11 11 11 11 11 11 11 12 12 13 13 13 13 12 12 13 12 12 12 12 12 12 11 10 9
3 2 3 1 2 5 2 2 3 1 4 3 5 9 6 3 6 9 9 6 7 9 5 3 1 6 9 8 5 1 2 8 13 13 12 13 13 12 12 12 14 15 14 13 13 13 12 17 17 16 16 18 18 17 16 16 15 15 15 15 15 14 13 13 12 11 11 10 9 9 10 10 10 10 10 11 11 10 10 11 10 12 12 13 13 13 12 12 12 11 10 10 10 10 10 9 8
3 2 2 3 2 3 7 2 2 3 3 3 7 8 6 3 6 7 10 1 7 8 7 9 9 13 8 5 3 2 5 9 12 13 13 13 13 13 12 12 13 14 14 14 13 12 13 13 17 15 15 16 17 16 14 15 15 15 15 14 14 15 14 13 12 12 11 10 10 9 9 10 10 11 11 11 11 10 10 9 9 11 12 12 12 12 12 13 13 12 11 10 10 9 8 8 8
2 2 2 2 4 5 1 2 1 3 6 2 3 5 4 3 5 5 8 9 9 11 9 6 7 11 10 7 3 3 7 9 11 12 12 13 11 12 12 11 13 13 14 13 13 12 12 12 12 14 14 14 14 15 13 13 15 15 15 14 14 14 14 13 12 11 11 11 10 10 10 9 10 10 10 10 9 10 9 10 10 10 12 12 11 11 12 13 13 11 11 10 10 8 7 6 6
0 1 3 2 1 1 2 1 2 3 4 1 5 7 8 2 1 5 7 7 9 10 7 2 15 4 6 6 3 5 8 8 10 12 12 12 12 11 11 12 13 14 13 13 13 13 13 12 11 12 13 16 14 15 15 13 13 14 14 14 14 14 14 14 12 11 11 11 10 9 9 8 9 9 9 9 9 9 9 10 10 10 10 11 11 11 12 12 12 12 11 10 9 9 7 6 5
2 3 4 4 2 2 2 1 1 2 2 2 1 7 4 3 4 3 9 11 9 5 3 10 7 9 9 7 4 6 7 9 11 13 11 12 11 11 12 11 13 11 12 12 13 12 11 11 11 11 13 12 12 13 15 14 13 14 13 13 13 13 14 13 12 12 11 11 11 10 9 9 9 8 8 8 8 9 9 9 10 9 9 11 10 11 12 11 11 11 10 10 10 9 8 7 6
2 1 2 1 2 2 2 3 3 3 3 1 3 5 4 4 1 5 4 8 5 4 8 6 2 4 6 11 6 9 9 12 12 12 12 11 11 11 10 10 9 9 9 11 11 12 12 11 11 10 10 10 11 9 9 13 15 13 13 13 13 13 13 13 13 12 12 10 10 10 11 10 9 9 9 8 8 8 10 9 8 9 9 9 10 11 11 11 10 10 9 9 9 9 8 8 6
3 3 1 4 3 4 3 4 0 2 3 1 4 4 4 6 5 1 4 3 7 3 1 4 3 2 4 8 5 13 14 14 12 13 12 13 12 10 10 8 9 9 8 10 11 10 11 11 10 9 9 10 10 9 9 10 13 14 13 13 13 13 13 13 12 11 12 11 11 11 10 10 9 9 10 9 9 9 6 7 9 9 9 9 10 10 11 10 10 9 9 8 8 8 8 7 6
2 0 3 1 4 4 4 4 5 4 1 2 2 7 8 4 3 4 3 4 10 3 4 4 3 2 6 2 10 17 15 13 13 15 13 11 11 8 8 8 7 7 6 10 9 10 11 11 11 9 9 9 8 9 9 9 11 14 13 14 14 14 13 13 12 12 11 11 10 9 6 6 6 7 7 7 9 7 7 7 8 8 9 9 9 9 9 10 9 9 8 7 8 7 6 6 6
2 4 2 3 1 6 5 6 6 2 2 5 6 4 5 4 4 6 8 10 8 6 5 5 6 5 5 8 15 16 15 15 14 15 12 11 10 10 10 9 10 10 9 8 9 9 9 9 10 9 8 9 9 7 6 7 9 10 10 10 10 11 12 12 10 9 9 8 9 7 5 5 4 5 5 7 6 7 7 7 5 6 7 7 8 8 8 8 9 8 7 7 8 6 2 2 3
2 2 2 5 4 2 4 2 4 1 3 4 4 1 2 2 5 4 2 3 5 5 4 3 6 8 11 13 15 16 15 14 14 14 15 15 13 15 12 10 10 9 9 8 7 10 8 8 8 8 9 8 8 6 5 6 8 7 9 8 8 9 10 9 7 8 7 6 6 5 4 4 4 4 4 4 5 6 7 7 5 5 4 4 6 7 7 8 8 7 8 8 6 3 1 2 2
1 3 5 2 6 3 4 3 3 5 2 7 6 2 3 3 2 3 3 7 4 5 5 2 5 7 12 13 15 15 15 14 14 16 17 15 14 15 14 13 11 11 10 8 8 7 8 7 8 7 8 9 6 6 5 5 6 7 6 7 6 6 6 5 4 6 6 6 5 4 3 4 4 3 4 8 7 4 6 7 6 4 4 3 2 4 6 6 7 8 9 6 2 1 2 1 2
3 2 2 3 4 3 3 7 8 4 3 4 1 2 1 2 1 3 6 6 4 4 7 6 11 13 15 15 14 15 15 15 16 16 17 16 12 10 11 11 11 11 10 8 7 7 7 7 7 8 7 6 5 3 3 5 4 4 6 6 5 5 5 5 5 6 6 5 5 3 4 4 4 3 4 4 4 4 4 3 3 3 3 3 3 2 2 1 2 3 3 3 2 2 2 2 2
4 4 2 4 3 4 7 5 4 4 2 2 1 6 2 1 2 4 9 5 3 3 7 6 9 16 18 17 15 15 16 16 17 16 17 17 14 13 11 9 8 10 9 8 8 8 8 8 9 9 8 9 6 5 3 6 6 5 6 6 7 5 6 5 5 5 5 4 4 4 4 4 4 3 3 4 4 4 4 3 3 3 4 3 4 3 2 2 1 2 1 2 2 1 1 2 2
5 2 3 3 4 5 2 0 1 3 2 2 4 1 1 2 2 3 1 4 2 1 3 7 11 16 16 16 18 17 16 17 17 17 17 17 15 13 13 12 12 10 9 9 8 8 8 8 8 7 9 9 8 6 5 5 5 5 6 6 6 6 6 6 4 4 3 4 5 5 5 4 4 4 4 4 4 4 4 4 3 3 3 3 2 3 3 2 1 2 1 1 0 1 1 1 1
3 3 1 4 6 8 3 4 2 2 2 4 1 1 5 1 3 3 4 1 5 6 6 9 13 15 16 16 17 18 18 17 17 16 15 16 15 12 13 12 10 9 8 8 8 8 8 8 7 6 4 4 5 7 4 4 4 6 6 6 6 6 5 5 4 4 4 4 4 4 4 4 5 4 5 4 4 4 4 4 4 3 3 3 2 2 3 3 3 2 2 1 1 1 1 0 0
5 4 4 2 4 6 4 3 5 4 6 3 3 4 5 4 3 5 2 3 4 2 9 12 14 15 15 14 16 15 15 15 15 14 13 12 12 11 11 10 11 9 9 8 7 8 9 9 10 10 7 7 6 7 6 5 5 6 7 7 6 6 5 3 3 3 4 4 4 4 4 3 3 4 4 4 3 4 5 5 5 4 4 4 4 3 3 4 3 3 2 1 0 1 0 0 0
6 6 3 2 4 4 3 4 7 5 2 3 2 7 0 2 3 4 2 1 2 6 9 12 13 15 15 15 15 15 14 14 13 13 13 11 11 13 13 12 10 8 9 9 9 7 4 4 8 8 7 7 7 6 4 6 6 6 6 5 4 5 4 3 3 3 3 3 3 3 2 2 3 2 2 2 3 4 5 4 4 4 5 5 5 5 4 4 3 3 3 2 1 1 0 0 1
4 3 5 6 3 4 2 4 1 1 2 4 5 1 2 1 3 3 4 4 6 8 9 10 13 15 15 14 14 13 12 12 12 12 10 11 12 12 12 13 9 6 8 7 6 4 2 6 6 7 6 4 5 6 6 6 7 6 5 4 5 5 4 4 4 4 4 3 2 2 1 2 1 1 1 2 2 3 2 2 2 3 4 4 4 4 4 4 3 3 3 2 2 1 1 1 0
3 2 1 4 4 5 5 5 7 1 4 8 7 2 1 3 1 3 5 8 9 9 10 11 12 13 13 14 14 12 11 10 10 9 11 12 10 10 11 12 12 8 9 8 8 7 4 6 7 7 7 8 8 8 8 7 6 6 6 5 5 4 5 5 4 4 3 2 2 2 1 3 2 2 3 4 3 2 3 3 3 4 3 3 3 3 3 3 3 3 2 2 1 2 1 1 0
1 2 3 1 2 5 4 6 2 4 3 5 6 4 3 4 5 2 8 10 10 9 10 11 12 12 12 13 12 10 8 7 6 7 8 7 6 8 10 10 12 8 7 8 9 9 9 8 8 11 11 10 9 9 7 6 5 5 6 5 5 4 4 4 4 3 2 2 4 1 2 2 1 4 3 1 1 1 2 1 2 3 2 2 2 2 3 3 3 3 2 2 2 2 1 2 0
3 3 1 3 2 4 1 0 1 4 2 6 7 7 5 7 5 5 10 11 11 10 9 11 10 10 11 12 11 8 5 6 5 6 5 4 7 11 10 12 16 9 7 6 5 9 7 6 6 7 9 10 9 7 6 5 6 5 5 5 5 5 5 4 3 3 4 3 1 2 3 3 3 1 3 2 2 1 2 4 4 4 3 2 2 2 3 2 2 2 2 2 2 2 2 1 1
3 1 0 1 1 4 2 1 4 5 2 8 4 8 4 5 5 7 10 11 13 12 11 12 12 12 11 11 9 6 5 5 5 5 3 8 11 9 9 12 9 7 7 8 9 9 10 9 7 6 8 8 8 7 7 6 6 5 5 5 5 5 4 4 3 2 2 2 2 2 2 3 2 2 2 4 3 2 3 4 5 4 2 2 2 2 2 2 2 2 2 2 2 1 2 1 1
2 4 3 0 3 3 4 3 7 8 2 2 6 7 7 3 3 11 11 11 12 10 12 13 13 13 13 10 8 6 5 4 4 4 6 10 11 9 7 6 7 9 9 10 10 10 11 9 9 8 8 8 7 7 7 6 6 5 5 5 5 5 3 3 3 3 4 4 4 3 3 3 4 5 5 5 5 3 2 5 4 2 3 3 3 3 3 3 3 3 3 2 2 3 3 3 1
2 3 1 3 1 1 5 3 3 4 3 2 9 4 1 5 3 10 12 12 12 10 10 11 13 13 13 11 7 6 5 5 5 6 8 11 11 11 10 10 9 11 10 12 11 11 11 10 10 10 10 9 7 8 7 6 6 6 5 5 5 4 4 4 3 3 3 4 4 4 3 3 3 3 4 3 2 2 4 3 2 2 2 2 3 3 3 2 3 4 4 3 1 1 1 1 1
4 1 3 1 4 3 3 1 2 1 4 5 4 5 5 2 1 11 12 12 12 10 10 10 10 10 11 10 8 8 7 7 9 8 9 13 11 9 6 10 11 11 11 11 12 10 13 10 11 10 9 9 8 7 7 7 6 6 5 4 5 4 4 4 4 3 3 3 3 2 2 2 2 2 2 2 1 1 2 2 1 2 3 3 3 3 2 1 4 4 4 3 2 1 1 1 0
5 3 3 3 2 4 4 2 2 2 1 5 4 8 9 1 2 10 12 11 10 9 9 10 9 10 11 9 9 9 8 10 9 7 10 13 14 10 8 9 8 8 5 7 8 8 9 9 9 10 10 10 8 8 8 7 7 5 5 6 5 5 4 4 4 4 3 3 2 2 2 2 2 1 1 1 2 2 3 2 1 2 2 2 2 3 2 3 2 2 4 5 4 4 5 4 2
5 3 1 1 2 3 3 3 0 2 5 6 7 9 12 6 5 9 11 12 11 9 8 8 9 9 10 10 10 9 9 10 7 7 10 11 10 9 8 7 7 6 4 6 6 6 8 10 9 9 9 9 8 7 7 7 6 5 6 6 6 5 5 5 4 4 4 4 3 2 2 2 3 2 1 1 1 1 2 1 0 2 3 2 2 2 2 2 2 4 4 7 6 3 4 2 3
5 3 2 2 3 5 5 4 3 1 2 9 8 9 6 6 8 11 12 11 10 10 11 9 9 9 10 10 12 11 11 10 6 6 9 10 11 9 7 4 6 8 7 8 8 8 8 11 10 10 9 9 8 7 7 7 6 6 4 4 5 5 6 6 5 4 4 3 3 2 2 2 2 2 2 2 1 1 1 1 1 2 2 1 0 1 1 1 1 3 5 4 4 4 2 3 3
2 2 3 2 3 5 2 1 3 2 6 1 2 6 6 1 3 8 10 11 13 12 11 10 10 10 10 11 12 12 11 6 5 5 7 9 8 9 7 5 8 10 9 9 9 9 8 8 10 9 9 9 9 9 8 7 5 3 4 4 5 5 5 5 5 4 3 3 3 2 1 1 2 3 3 2 1 2 1 1 1 2 2 2 1 0 2 2 2 3 5 4 3 5 4 4 3
2 3 1 2 4 6 6 1 1 2 3 3 1 7 2 2 2 8 10 9 7 9 9 9 9 10 10 10 11 11 9 8 6 6 7 9 10 10 8 6 6 7 8 9 7 7 8 8 6 7 7 7 8 7 7 6 3 2 3 4 5 5 3 4 5 4 4 4 2 2 1 1 1 2 3 3 2 1 1 1 2 2 2 2 1 1 3 4 3 4 5 4 4 2 2 2 3
3 2 2 5 2 1 3 2 3 4 1 2 4 6 2 3 3 2 2 2 2 3 6 7 8 10 11 10 10 10 11 10 9 7 9 9 9 9 8 7 7 6 7 7 6 7 6 6 6 7 7 6 6 5 6 6 6 5 5 5 4 4 6 5 6 5 5 5 4 2 2 0 1 2 3 4 3 2 1 2 2 2 3 1 1 1 2 4 4 3 3 2 3 3 3 3 1
1 4 4 3 3 3 3 1 2 1 2 3 8 5 2 2 6 4 1 2 3 3 6 7 9 9 9 8 9 11 11 11 10 9 9 9 9 9 9 8 6 7 7 7 7 7 5 7 7 8 7 6 6 7 8 9 9 8 7 7 8 8 6 5 6 5 4 4 4 3 3 2 1 2 3 3 3 3 2 2 2 2 2 2 1 1 1 2 3 3 2 2 3 2 3 2 2
2 6 10 8 2 4 5 2 2 2 3 4 1 4 3 1 3 6 5 2 3 2 7 8 10 11 10 11 12 11 9 10 11 10 9 8 8 7 7 6 7 5 5 4 4 5 5 6 7 7 7 6 7 8 9 9 8 8 9 8 7 6 6 5 5 5 4 3 3 2 2 2 2 1 1 3 4 4 4 3 2 2 2 2 2 1 1 2 3 4 3 2 2 2 2 3 3
3 4 10 10 6 2 0 2 2 3 3 2 1 3 3 2 4 7 7 8 9 4 8 10 11 11 13 13 12 11 12 11 11 8 7 8 8 8 7 6 5 4 5 5 6 7 8 8 8 9 8 7 7 8 9 8 8 6 6 6 7 7 7 4 3 3 4 3 3 3 2 2 2 2 2 2 3 3 3 3 3 3 3 3 2 2 2 1 2 2 2 3 3 2 2 3 3
5 1 6 6 6 7 4 3 2 1 2 1 1 2 3 5 2 1 1 6 7 7 8 9 11 13 14 13 13 13 12 12 11 10 7 8 8 9 7 5 4 5 7 7 7 8 11 11 10 8 6 7 7 8 8 7 8 5 5 6 6 6 6 7 6 5 4 4 4 3 2 2 2 2 3 3 2 2 2 3 3 3 3 3 2 3 3 2 2 2 1 1 2 2 3 2 3
1 2 4 7 6 3 5 1 2 1 2 3 1 4 3 1 3 0 5 8 8 10 10 10 10 10 11 12 13 14 13 12 12 9 8 7 7 6 5 7 6 8 8 9 10 10 8 7 7 7 7 6 6 7 7 5 5 7 5 6 7 5 7 7 6 5 5 4 5 3 3 2 2 3 3 3 3 3 2 2 2 3 2 3 2 3 3 3 3 3 3 3 3 3 0 1 2
1 6 8 7 6 5 0 2 3 1 2 3 2 6 3 2 2 3 2 4 7 7 8 9 10 11 10 10 10 10 9 9 10 9 6 5 5 5 5 7 8 7 7 8 7 5 7 9 10 10 8 5 5 7 6 7 6 5 5 7 9 8 7 6 6 6 5 4 6 4 3 2 2 3 4 4 3 3 3 3 2 3 3 2 2 3 3 3 2 3 3 2 2 2 2 2 4
7 3 8 4 4 2 2 4 1 3 2 1 4 4 3 5 2 0 2 2 1 3 3 3 4 7 9 9 8 8 8 8 7 6 5 4 5 7 7 8 7 7 5 5 4 6 7 7 8 10 9 7 6 5 7 7 6 5 5 7 9 10 9 9 8 6 6 5 5 4 3 2 2 3 3 4 4 3 3 3 3 3 3 2 2 2 2 3 3 2 2 3 2 2 2 4 4
4 3 3 4 3 1 2 2 1 2 2 2 3 2 3 6 3 3 3 2 2 4 6 5 5 6 7 8 7 7 7 7 7 7 6 6 7 7 8 9 9 8 6 5 4 5 7 9 9 10 8 8 6 6 6 6 5 3 2 5 8 9 10 8 9 9 8 7 6 5 3 3 3 3 3 4 4 4 3 3 3 3 3 2 3 2 2 3 2 2 2 2 3 3 3 4 4
2 4 4 5 2 0 3 1 4 4 2 2 2 1 2 3 2 2 6 5 5 4 5 7 7 7 5 5 6 5 5 7 7 7 6 6 6 8 9 9 9 9 8 8 7 9 13 11 10 3 6 5 4 4 4 5 5 5 4 5 5 6 7 8 8 8 7 7 6 6 5 4 3 3 3 4 4 4 3 3 3 3 3 4 3 3 3 3 2 2 3 4 4 4 3 4 5
3 6 4 5 3 2 1 1 2 3 2 1 1 2 2 3 3 2 6 6 7 6 6 6 8 7 4 3 6 6 6 6 6 6 6 5 4 3 4 6 6 6 8 8 10 16 13 11 6 2 6 4 4 5 5 6 5 5 5 4 5 6 6 6 7 8 6 6 5 6 6 5 4 4 3 3 3 3 4 4 4 4 5 4 4 4 4 4 3 2 3 4 4 3 3 5 5
5 3 6 6 6 4 3 4 4 4 2 2 0 3 3 7 3 3 5 5 5 5 3 2 1 2 6 7 8 9 9 9 9 10 10 10 8 6 2 2 4 5 4 5 13 15 12 10 3 6 6 6 6 7 5 6 5 5 4 3 3 4 6 6 6 6 7 6 4 5 5 5 5 4 3 3 3 4 4 4 4 4 4 4 4 4 3 4 4 3 4 4 4 3 4 4 4
1 1 3 4 5 3 5 1 2 3 3 1 3 1 1 1 2 5 4 3 5 4 3 2 6 7 9 10 10 9 9 9 9 10 9 9 10 8 4 8 6 3 3 10 13 12 11 7 5 7 8 8 6 6 5 6 6 6 6 6 5 5 5 6 6 6 5 6 6 6 6 6 5 5 4 4 4 4 4 4 4 4 4 4 4 4 4 3 4 4 4 4 4 3 3 5 4
4 4 6 1 4 7 5 2 2 1 1 2 2 1 1 2 2 3 0 2 4 3 3 4 7 8 9 9 10 11 11 11 9 7 6 4 7 10 8 6 8 1 8 13 12 12 14 14 12 13 7 3 4 6 7 6 6 7 7 7 6 5 6 8 8 9 8 5 4 3 4 5 7 5 4 4 5 4 4 4 4 4 3 4 4 4 4 4 3 4 4 4 4 3 4 4 3
8 5 5 5 1 3 2 3 1 0 3 1 1 1 2 4 2 5 5 5 5 4 4 4 4 7 10 8 7 8 9 10 11 9 7 4 3 8 8 7 8 4 15 15 12 12 11 14 17 9 5 8 8 5 4 5 7 7 7 7 7 7 4 5 8 7 7 6 5 4 3 4 6 5 5 4 4 4 4 4 4 4 3 3 4 4 4 4 4 4 4 4 3 2 4 3 3
2 0 8 4 2 5 2 2 1 3 3 1 2 1 2 4 1 1 5 6 7 6 5 5 5 4 5 6 6 7 7 7 6 7 4 3 1 4 6 3 4 7 12 15 11 13 13 10 8 10 15 14 7 2 2 4 5 4 4 6 7 7 5 4 6 6 7 6 5 5 6 3 6 5 6 5 5 4 4 3 3 3 3 4 4 4 4 4 3 4 3 3 3 2 4 4 3
6 5 5 3 1 2 4 1 1 5 3 1 2 3 2 5 0 3 2 3 5 7 5 5 3 4 4 4 4 4 4 5 6 4 3 3 4 3 6 7 7 8 11 13 13 8 8 7 8 12 12 9 5 5 4 4 4 3 4 4 5 5 6 6 5 6 6 6 5 4 5 5 5 5 4 5 5 5 4 4 3 3 3 3 4 4 3 3 3 3 3 3 3 2 4 4 3
4 4 2 2 3 2 2 3 0 3 3 2 2 2 3 2 3 4 4 3 3 6 6 2 2 2 2 2 2 2 4 3 3 5 3 3 4 6 8 8 7 8 10 11 12 11 9 7 8 8 10 9 7 5 6 4 4 4 5 6 7 6 7 6 6 5 5 5 5 4 3 4 6 5 5 5 5 5 4 4 4 3 3 3 3 3 2 2 2 2 2 2 2 2 3 3 2
3 6 5 6 8 7 7 4 2 0 3 3 4 4 2 3 2 4 6 3 2 2 5 4 4 5 4 4 1 2 5 5 3 4 4 4 5 7 8 6 6 7 8 11 11 9 10 10 9 6 5 6 5 5 5 5 4 4 6 6 6 6 7 6 6 5 4 3 4 3 3 5 6 5 4 5 6 5 4 4 4 4 4 4 4 4 3 2 1 2 2 2 1 1 1 2 2
Wind_Direction
229 42 150 143 182 193 180 78 212 146 207 229 292 198 115 257 305 289 252 312 195 34 329 60 154 163 199 238 168 78 25 169 107 174 82 101 138 141 143 136 138 142 145 145 142 140 137 137 134 134 134 133 131 128 127 127 125 125 124 125 125 125 126 126 127 128 126 126 125 124 123 124 126 126 126 125 124 124 122 121 120 119 119 118 119 118 118 117 116 119 123 123 122 121 118 117 115
130 90 98 181 146 185 165 310 48 174 331 252 234 99 129 179 214 272 341 354 24 111 86 75 71 69 65 82 101 126 59 30 27 54 96 117 129 137 137 140 146 144 142 142 145 142 141 138 135 135 135 134 132 129 128 127 127 127 128 128 129 129 129 128 128 128 127 128 127 126 126 128 129 129 129 128 127 127 126 125 123 121 122 121 118 118 119 122 123 123 123 123 123 122 119 120 116
151 149 117 188 120 339 102 292 227 142 199 222 228 194 85 194 101 48 34 107 145 138 155 96 77 38 14 349 85 346 93 56 98 83 99 134 133 137 141 142 142 137 138 140 143 144 139 137 136 135 136 136 134 132 130 129 131 130 129 128 129 129 128 128 128 128 129 130 129 129 130 131 131 130 129 126 122 122 125 126 125 123 121 120 121 121 121 120 122 126 126 127 128 127 123 123 121
94 0 182 201 132 281 149 128 195 175 195 222 288 147 208 149 129 103 137 149 166 159 232 88 48 347 275 72 58 72 96 108 76 123 120 150 130 138 140 141 137 136 137 140 141 141 137 138 139 140 138 136 134 133 132 132 133 133 132 130 129 129 131 132 134 134 134 135 133 132 133 132 131 132 131 129 128 125 114 119 124 123 122 123 121 121 121 121 124 125 127 130 129 127 127 125 122
190 118 244 229 170 152 179 180 189 168 219 182 167 83 192 174 146 191 135 200 224 223 46 130 122 59 57 62 28 60 91 89 105 129 127 106 128 135 141 140 138 137 139 139 138 142 140 139 138 137 136 136 134 133 133 133 133 134 134 133 132 132 134 137 138 139 137 136 135 135 134 135 134 135 134 133 133 130 129 130 128 123 122 119 119 122 123 126 128 131 130 131 132 133 132 128 124
99 168 53 235 259 45 94 172 191 217 235 106 238 112 194 196 297 315 273 294 285 205 121 115 106 147 83 28 358 87 357 147 133 116 140 132 133 139 137 137 137 137 137 139 141 144 142 134 133 134 132 132 133 133 133 134 135 136 136 134 133 134 136 139 141 140 137 136 136 137 137 135 136 136 136 135 134 132 134 131 131 123 119 118 118 119 122 129 132 133 136 135 132 129 130 131 122
146 166 86 127 108 282 220 221 220 228 228 181 245 180 207 233 266 281 283 312 103 118 267 126 127 120 103 97 118 44 353 274 176 133 141 131 132 136 135 138 136 132 137 139 142 141 137 130 131 131 129 129 130 132 134 135 135 135 136 133 134 137 138 140 140 139 138 136 137 138 137 138 137 138 136 132 130 134 132 134 129 124 121 121 118 116 119 128 130 129 122 122 120 122 121 118 120
60 242 83 195 128 230 199 249 248 176 212 195 295 287 272 235 246 250 277 231 174 199 118 134 142 94 101 229 147 66 31 40 106 115 118 130 132 129 137 138 136 135 137 138 142 135 132 131 132 131 129 132 134 135 135 134 134 134 133 131 133 136 139 141 140 137 136 137 139 140 143 143 140 136 134 132 130 130 128 124 125 125 121 120 118 115 111 113 115 120 125 122 118 118 116 113 102
85 90 349 173 170 43 201 233 272 162 299 260 261 215 259 268 243 251 269 212 89 153 145 151 151 132 158 130 96 44 47 103 116 115 120 128 132 136 143 144 138 138 138 141 142 139 136 135 134 133 136 136 136 137 138 137 134 134 133 130 130 132 134 136 138 136 135 138 141 143 139 135 135 136 131 130 130 129 129 130 131 131 126 126 122 117 114 110 110 112 117 123 123 120 111 103 100
96 279 161 134 64 203 346 232 218 180 232 275 284 286 283 167 235 226 246 227 212 146 129 127 238 124 141 118 123 80 99 133 121 117 126 135 136 138 143 142 138 137 138 142 141 140 137 140 140 138 138 137 137 137 141 138 136 134 131 128 129 132 132 132 133 134 135 135 136 137 132 130 134 130 131 130 130 124 126 132 134 134 134 131 123 118 114 112 109 107 115 121 121 108 108 112 116
148 47 9 175 181 215 221 208 262 263 237 291 285 261 269 246 221 227 222 228 164 151 128 139 113 129 128 114 73 54 138 141 128 126 137 141 140 140 138 139 136 137 140 142 140 142 142 143 138 135 136 137 136 136 139 137 138 137 133 131 132 133 132 129 130 130 129 128 125 125 125 127 131 132 133 132 133 128 125 126 128 135 130 125 124 117 115 112 109 106 104 105 109 112 117 126 133
140 197 180 181 214 206 216 249 272 279 283 302 291 356 353 297 190 210 204 184 167 141 146 190 145 132 107 131 132 136 140 144 128 134 142 141 139 139 139 138 138 138 140 141 142 143 145 140 142 137 132 127 127 127 129 135 136 135 132 130 132 133 132 130 129 130 130 126 126 129 132 132 133 131 129 125 123 123 120 122 124 125 131 129 124 116 113 109 108 105 102 99 99 103 117 128 140
139 122 152 182 203 211 102 259 216 304 302 163 352 352 341 115 312 240 170 144 138 137 146 231 142 162 123 138 118 140 146 141 139 139 142 145 141 140 139 138 141 141 142 144 144 147 147 149 143 145 137 130 127 129 134 139 135 128 129 133 135 135 133 130 131 130 126 127 129 130 127 125 126 127 126 123 121 119 119 118 119 124 128 121 121 114 111 110 111 111 108 104 102 104 111 119 127
211 196 158 205 41 136 173 208 304 245 124 62 150 308 337 358 21 116 136 131 140 139 60 132 133 108 98 108 147 174 156 149 143 141 144 140 140 144 138 138 140 138 142 145 148 147 147 150 145 142 140 138 140 134 134 131 127 127 130 133 136 134 131 129 128 128 128 128 130 126 123 123 124 122 119 117 115 117 112 113 116 120 120 120 121 115 113 114 115 114 114 113 110 109 109 111 109
219 153 140 71 142 169 199 211 219 187 107 51 63 340 25 31 330 89 83 112 87 73 112 58 83 267 176 165 182 196 155 151 146 143 137 137 138 134 136 142 134 136 142 145 142 148 150 149 149 144 144 143 142 136 136 132 129 129 131 132 133 131 126 126 129 129 129 128 128 127 126 126 126 123 117 116 113 117 117 113 116 120 124 123 124 121 117 117 118 116 114 110 110 106 101 96 92
129 137 79 202 178 208 168 221 142 195 114 209 33 303 114 44 27 21 11 303 112 58 334 134 1 11 138 177 173 166 142 147 144 137 134 131 133 133 135 133 134 135 138 144 148 149 149 152 151 148 144 144 142 136 131 130 131 134 132 132 132 128 127 129 129 128 129 130 129 130 131 135 134 130 129 126 121 115 115 124 126 127 127 127 126 126 123 124 125 123 116 111 102 94 88 84 78
122 299 186 138 205 198 154 215 171 165 25 232 319 23 22 61 33 73 44 85 120 57 68 23 342 314 178 164 133 134 139 141 144 145 139 134 138 135 133 133 139 138 140 149 149 148 150 152 151 148 147 141 132 127 133 134 136 135 137 139 134 128 128 130 128 129 133 135 136 123 126 140 136 133 140 127 128 130 120 132 131 127 127 128 132 128 128 129 128 125 122 114 102 88 79 74 69
179 189 186 213 153 190 170 214 186 79 294 2 355 15 22 42 111 116 106 65 83 93 72 65 63 72 76 100 121 129 139 148 153 151 151 147 152 149 150 152 154 154 150 151 147 146 147 150 152 146 142 140 138 132 135 140 142 143 143 140 138 133 132 134 139 143 145 140 126 135 145 140 143 138 132 131 131 133 124 84 92 127 131 134 133 127 125 126 124 124 120 106 98 89 76 92 90
189 109 204 231 161 168 190 207 192 299 347 309 315 30 65 1 176 167 156 111 124 87 56 66 76 84 100 123 129 135 147 155 159 160 160 162 167 162 162 158 159 150 149 151 145 150 148 144 144 143 137 131 113 115 136 135 141 143 142 142 133 137 136 141 141 142 140 135 148 149 151 149 145 138 137 134 126 109 107 115 104 81 77 121 131 132 128 123 122 118 109 96 91 117 155 71 64
164 203 207 223 207 265 210 214 239 208 330 312 330 46 321 355 230 153 214 150 162 165 149 139 145 144 137 139 141 143 153 160 167 171 171 173 173 169 163 163 161 157 152 154 148 148 143 143 144 135 116 112 141 137 125 140 138 138 136 139 134 130 125 114 137 144 147 146 143 138 146 144 143 155 129 127 122 136 121 120 109 102 73 38 159 149 137 131 124 113 88 89 96 54 52 55 70
135 218 222 187 176 223 216 180 243 241 224 289 323 296 20 99 191 225 132 146 223 236 205 171 181 163 153 152 149 150 158 167 175 178 178 178 172 169 167 164 160 157 152 141 139 136 138 136 133 124 125 106 97 124 115 123 126 134 130 118 109 125 134 147 165 157 155 144 145 135 141 144 153 155 145 148 147 142 140 136 146 161 148 161 119 177 136 142 133 110 111 81 57 19 25 38 18
135 226 165 111 130 233 269 272 164 200 180 243 25 325 15 103 97 189 173 190 191 233 201 211 174 164 160 158 158 160 167 174 181 181 183 181 172 168 160 153 144 150 145 137 138 143 146 145 138 127 137 140 142 127 151 159 154 153 135 137 142 149 153 161 165 164 147 139 141 145 154 157 160 165 146 149 141 148 147 153 157 160 161 162 182 158 159 155 127 96 67 77 61 10 23 27 37
219 150 225 204 181 239 293 260 210 173 202 215 304 350 311 92 110 210 216 254 342 353 297 185 180 170 168 158 157 167 174 181 185 187 183 182 179 171 166 161 155 148 153 140 140 150 152 136 137 140 136 139 142 147 163 161 178 160 152 159 154 163 166 171 169 150 159 155 155 162 165 166 162 158 167 158 154 159 159 162 164 170 162 165 169 149 146 130 96 81 57 58 45 33 19 50 82
236 216 136 208 199 228 214 258 142 223 219 258 156 18 281 170 273 143 221 222 307 309 186 167 165 167 164 163 171 172 176 183 189 190 190 188 181 167 169 157 147 139 130 140 152 148 134 124 103 62 38 109 137 141 136 194 174 166 161 167 169 170 173 177 172 174 161 161 164 174 178 172 165 166 166 171 164 165 169 167 161 163 162 156 157 161 147 148 147 141 144 194 235 51 35 51 130
203 233 191 232 203 232 243 263 271 255 251 269 240 268 259 186 223 151 221 358 346 87 141 148 156 163 169 170 171 175 178 186 188 190 192 193 184 165 155 146 129 132 136 153 135 134 125 134 141 145 176 175 165 142 159 194 191 178 179 175 176 181 179 179 180 164 162 167 171 178 182 172 175 181 179 168 171 172 172 173 161 165 168 164 159 163 174 159 161 167 164 160 97 38 83 170 354
200 223 188 142 241 265 268 278 258 254 258 178 174 244 132 223 119 226 85 114 122 131 137 147 156 166 172 175 177 180 182 184 184 186 191 189 180 164 153 134 127 138 148 141 135 125 124 140 136 139 170 182 163 147 171 194 201 193 185 179 176 180 182 179 168 168 163 181 173 178 165 191 194 194 160 160 179 182 181 168 173 167 171 171 178 174 174 179 166 167 166 168 166 171 215 105 301
159 192 209 244 270 332 298 232 339 69 236 181 225 262 26 29 226 213 123 140 151 146 147 157 165 173 176 179 185 184 182 181 181 183 181 184 180 161 141 126 104 124 128 96 55 32 177 159 164 157 166 188 176 163 181 197 202 195 190 176 189 184 177 182 185 178 178 189 160 135 67 236 223 20 69 199 220 189 178 175 197 187 180 183 195 180 184 182 174 179 172 174 183 195 181 185 296
162 165 236 247 305 257 254 306 265 280 264 184 217 67 109 91 191 261 131 150 159 155 157 164 175 175 181 186 188 184 180 182 180 178 177 176 181 166 129 123 129 132 117 162 175 166 184 198 172 149 165 200 188 183 190 194 192 192 188 182 191 174 165 193 189 190 182 174 149 75 156 237 73 11 237 227 213 184 195 181 196 202 184 183 195 189 180 189 189 177 165 152 167 195 187 167 59
68 178 273 282 331 267 177 228 358 185 244 146 159 136 159 148 202 96 145 150 163 161 164 169 176 179 184 187 187 182 178 166 169 188 195 178 125 87 82 99 101 144 193 173 175 166 178 192 187 171 189 197 190 192 187 178 179 183 175 187 180 171 178 182 192 187 134 89 74 161 228 256 123 203 233 277 349 260 43 265 202 230 221 207 182 194 181 188 197 184 173 182 176 183 190 142 152
129 92 305 283 334 252 155 255 69 180 256 163 164 234 216 209 156 139 155 161 160 158 167 175 178 185 184 180 183 177 159 167 182 197 190 148 90 90 92 134 164 165 161 180 171 171 176 186 189 180 191 190 193 192 185 178 179 172 173 178 177 168 174 177 191 131 108 92 81 179 214 170 150 76 312 287 277 164 159 234 231 209 209 196 179 193 197 198 204 209 206 208 169 191 170 153 195
211 104 166 292 231 217 170 121 134 201 129 187 180 245 212 242 204 159 165 169 169 167 172 181 183 187 188 180 185 175 176 191 188 186 136 86 78 88 143 175 124 134 152 170 178 185 187 191 185 186 184 187 183 190 190 180 174 169 170 168 162 163 157 172 156 130 122 154 193 227 236 194 183 188 212 278 242 191 176 232 222 213 198 180 177 183 202 178 179 193 202 212 160 159 174 141 208
35 169 201 176 223 193 265 201 188 221 113 238 195 238 238 224 136 158 167 176 179 176 176 182 186 190 190 184 179 177 187 194 187 161 110 88 99 112 175 157 161 147 166 175 180 184 194 191 183 182 175 177 181 184 181 168 155 149 151 145 144 144 138 131 111 106 128 147 151 140 151 150 167 195 203 209 228 177 194 220 216 195 149 145 153 166 199 194 172 178 187 196 181 172 179 160 189
44 246 186 183 213 248 303 150 257 285 78 144 211 243 77 241 171 165 169 177 184 180 181 186 191 193 191 191 182 184 177 189 199 185 128 97 112 141 200 159 179 169 169 181 178 187 185 181 179 178 169 161 155 159 146 131 129 131 127 127 124 125 123 114 108 120 134 137 147 151 154 152 182 183 188 183 207 164 202 215 195 155 143 150 163 183 201 173 177 188 181 166 177 158 218 170 156
196 8 210 158 202 171 204 195 121 245 221 188 205 228 219 33 308 169 173 179 183 185 184 189 192 193 196 194 194 190 198 201 206 192 146 120 136 185 178 177 180 170 178 181 188 185 183 172 175 170 156 152 154 145 135 122 118 116 118 120 123 122 110 116 124 129 121 122 137 127 133 133 177 158 159 168 182 242 252 240 157 144 141 149 193 210 193 141 212 198 156 103 58 117 83 26 29
188 182 180 185 227 244 290 268 132 156 84 227 167 225 232 39 162 175 176 182 186 189 183 187 190 195 197 205 201 201 206 210 208 191 154 136 149 192 175 189 183 164 167 192 186 191 189 173 166 159 148 151 143 129 116 109 109 105 114 123 121 112 106 103 117 110 98 99 94 108 117 126 128 166 216 247 252 244 244 242 205 132 134 155 188 194 159 167 142 98 114 121 103 127 166 171 183
156 143 184 201 230 175 218 221 271 232 206 225 187 207 221 186 173 177 177 184 193 191 188 185 191 192 199 206 208 208 212 216 207 182 153 150 150 187 213 174 180 170 174 188 174 175 188 180 166 151 150 143 132 128 127 128 134 143 142 138 128 119 120 117 113 105 109 103 99 97 106 116 123 131 113 134 225 253 268 285 58 143 147 162 193 197 174 163 153 132 118 124 145 155 79 147 173
108 117 150 227 257 267 261 273 267 152 219 228 208 220 225 184 186 182 182 180 192 195 195 196 193 194 200 205 208 210 213 213 196 159 149 152 155 192 215 163 161 174 179 182 176 178 182 184 167 155 153 148 148 147 149 149 153 153 154 143 123 128 123 119 112 109 102 93 93 103 107 108 119 121 117 137 147 309 317 353 42 82 65 72 10 259 236 88 99 147 121 146 167 120 167 153 167
159 162 235 242 199 260 182 89 55 269 217 184 186 215 223 180 183 184 183 189 199 200 198 200 200 202 208 209 210 212 212 207 175 137 146 153 164 179 208 195 159 171 179 181 181 178 174 169 173 157 155 159 163 167 157 157 162 166 154 139 127 120 127 126 116 108 100 94 96 93 99 109 117 115 113 110 95 30 26 34 56 77 106 98 88 68 106 124 139 144 148 156 205 190 166 182 172
110 242 206 275 229 255 294 337 345 34 212 255 141 193 135 34 170 186 194 199 213 210 212 205 201 209 215 214 216 216 211 213 197 173 160 168 171 178 195 198 170 174 163 180 179 160 160 163 163 139 156 154 167 164 147 138 132 102 121 132 126 107 64 84 101 102 108 104 88 101 113 149 150 121 123 131 129 111 69 53 77 86 89 113 160 156 137 129 128 145 166 167 177 154 162 181 173
175 159 206 229 96 276 148 134 11 51 280 223 176 151 73 77 102 150 30 253 119 143 190 201 206 217 220 218 217 218 218 219 212 189 183 175 177 180 189 194 177 162 159 171 166 164 155 165 149 149 154 154 143 152 126 108 98 89 81 104 98 106 121 111 106 114 113 110 93 70 59 335 219 135 127 135 133 131 119 59 67 108 124 119 76 149 111 124 136 140 171 202 222 196 172 171 147
225 224 228 253 203 220 243 80 316 195 94 70 121 112 108 56 162 210 163 54 112 131 169 187 212 231 229 223 223 222 222 222 221 205 192 181 180 186 190 192 170 172 165 163 162 162 159 164 158 158 156 152 147 147 133 120 112 109 113 108 106 100 107 112 113 95 90 98 100 70 38 10 29 133 144 141 125 120 111 85 65 76 99 109 144 130 125 94 103 116 151 183 216 240 178 158 137
201 224 214 225 165 225 257 348 232 184 126 42 289 154 146 107 202 195 183 174 181 150 206 211 217 226 224 222 224 223 227 226 224 216 201 188 186 182 192 184 179 170 156 128 124 130 150 156 158 155 151 151 153 150 138 130 136 145 145 141 133 125 121 128 121 119 115 97 76 70 52 25 21 69 119 126 114 124 124 123 112 108 109 115 105 75 87 129 142 168 160 184 169 184 196 180 154
204 231 196 217 208 199 215 241 169 181 167 106 306 238 126 112 161 186 184 198 200 164 213 217 215 219 222 224 222 222 222 223 225 215 184 186 190 189 188 180 166 137 102 111 134 143 155 164 169 167 161 156 153 148 142 132 144 165 166 147 136 132 123 97 91 92 101 95 91 79 63 30 22 69 76 73 103 115 116 115 116 108 100 106 104 111 104 100 97 80 120 168 152 144 223 214 195
212 105 162 166 173 214 216 173 224 73 359 211 48 349 161 153 118 181 222 199 194 200 208 211 213 221 221 221 219 219 221 221 221 215 195 193 190 189 179 148 133 127 134 149 157 167 171 173 167 161 148 145 153 146 145 145 149 153 149 125 120 125 125 129 128 111 100 108 99 84 88 64 36 45 72 75 70 77 84 108 117 121 119 101 99 90 97 109 124 125 131 137 140 151 159 162 150
260 136 162 153 179 185 159 218 95 45 226 143 126 357 174 136 110 184 177 179 208 222 213 212 211 215 220 218 217 215 216 216 216 213 200 193 189 181 150 134 131 140 159 168 179 182 165 130 123 126 131 135 140 131 125 132 138 154 158 130 116 108 116 122 123 122 119 116 104 90 78 76 72 55 57 73 71 70 72 77 80 89 82 80 85 100 107 106 109 131 141 138 134 135 159 132 153
103 133 90 90 92 81 246 127 123 153 211 194 155 352 197 174 79 150 158 205 199 219 222 220 212 213 217 218 212 203 199 204 213 216 200 186 168 146 121 126 146 160 176 191 188 133 113 132 137 131 115 108 115 119 123 135 148 153 151 135 128 126 122 123 129 126 123 121 106 97 94 89 83 85 72 64 72 76 79 83 79 77 80 75 51 69 89 94 96 103 104 107 125 124 123 100 86
133 175 104 90 56 54 52 51 64 122 212 199 359 338 298 175 158 293 144 99 24 316 267 268 275 237 229 227 214 197 193 189 186 185 183 165 136 135 141 150 151 161 181 193 153 134 134 119 102 95 103 117 128 132 143 149 154 168 152 141 131 132 136 138 134 129 126 126 117 107 100 87 62 76 84 74 59 66 78 81 84 81 70 64 72 78 71 74 76 75 81 81 73 78 100 113 116
170 144 140 116 73 348 74 36 7 180 200 76 354 320 314 204 189 223 229 292 327 297 289 293 286 263 232 218 216 202 187 173 168 172 170 155 139 140 148 151 163 172 177 175 164 121 90 81 95 99 112 132 146 151 152 150 144 131 95 138 138 142 148 149 145 141 142 135 128 120 115 111 95 87 82 85 65 50 57 64 76 83 78 70 67 49 58 81 81 89 88 82 79 70 86 97 103
163 120 137 195 158 51 194 193 195 204 191 68 331 307 163 235 24 333 315 333 344 319 292 287 283 272 266 243 210 180 154 157 165 165 152 154 155 150 162 165 170 177 186 179 141 89 77 71 60 101 144 132 113 120 133 124 123 133 161 160 144 147 150 147 140 136 140 136 135 134 139 125 127 109 90 89 68 50 56 64 55 68 67 46 36 37 54 52 78 85 85 82 81 82 83 97 103
165 177 149 168 171 158 218 124 0 333 268 57 279 326 310 8 280 251 286 328 338 326 304 275 269 276 289 191 155 142 141 139 121 105 91 76 70 104 151 178 196 198 187 166 111 97 97 96 162 171 57 62 122 152 156 148 139 151 172 175 149 153 151 144 138 139 138 134 140 141 140 134 123 114 109 86 72 66 62 52 51 61 60 58 45 39 36 31 23 69 82 81 78 71 80 86 93
192 37 184 198 164 178 195 193 201 213 165 98 68 195 179 172 115 329 320 335 352 0 347 341 343 96 105 100 105 111 111 108 112 111 108 97 77 54 44 184 213 226 223 113 102 109 112 146 120 95 164 175 183 179 161 152 152 160 159 162 164 156 145 143 138 136 138 137 140 139 135 132 128 129 116 106 99 86 79 72 64 65 65 64 59 53 46 43 27 42 62 63 63 56 68 78 82
64 187 48 134 212 141 233 81 253 153 146 160 168 250 32 311 351 312 332 355 33 23 24 85 93 107 110 109 110 112 114 119 122 120 121 123 121 102 20 302 265 199 108 75 102 108 109 117 166 200 181 189 191 164 173 170 164 155 155 160 174 162 151 140 132 132 134 142 152 153 149 140 133 130 124 121 108 108 104 100 96 91 94 90 85 79 70 63 44 54 64 62 65 31 70 78 85
156 156 195 196 36 107 96 115 60 17 18 199 44 239 210 249 245 211 260 73 60 53 73 102 113 117 113 113 122 130 133 134 135 134 129 125 128 118 137 236 271 242 89 103 125 133 144 165 177 206 185 147 198 187 187 175 154 155 162 162 166 172 169 150 143 143 143 147 143 159 156 148 137 137 132 127 123 122 126 129 126 126 120 115 107 100 94 84 78 74 76 75 72 55 66 67 67
109 212 172 121 102 42 151 188 61 58 217 176 167 116 165 180 166 159 167 149 129 122 115 119 135 143 137 141 141 140 142 141 138 130 117 81 295 121 133 204 228 122 109 123 130 137 172 178 186 172 107 214 222 200 162 154 161 172 166 165 168 170 172 141 137 147 141 153 158 149 156 165 145 138 135 132 129 129 126 135 136 133 125 114 106 104 97 97 96 86 85 84 78 84 95 85 70
240 201 137 180 182 191 33 116 173 163 210 190 150 324 271 234 173 155 182 162 136 130 134 135 130 108 96 91 97 98 96 80 81 95 88 121 221 120 132 151 69 84 117 131 155 168 187 197 164 118 188 211 207 173 137 165 180 173 167 168 166 162 159 153 151 151 150 158 166 154 167 204 125 134 139 141 140 135 129 121 126 129 123 112 105 99 104 98 98 101 94 96 102 114 105 105 94
49 122 113 8 284 138 164 212 96 196 192 104 171 196 205 202 3 310 202 96 123 133 149 133 104 80 59 65 79 75 84 100 103 80 43 48 321 27 63 79 92 112 123 142 163 175 184 179 167 172 201 209 168 184 186 182 186 171 162 159 165 161 152 152 169 158 173 156 143 184 158 159 133 134 138 139 139 139 140 139 127 125 127 122 118 112 108 106 101 98 111 110 109 123 115 116 123
125 150 126 88 39 300 39 58 81 216 160 198 152 185 223 87 345 296 327 37 154 155 151 125 98 56 72 50 348 98 92 46 71 85 83 78 29 34 45 61 89 116 129 147 166 178 183 178 183 176 189 211 199 174 181 188 166 168 163 171 166 162 156 158 168 172 176 162 138 168 181 146 130 133 145 149 141 137 136 131 128 112 102 104 105 109 107 118 123 119 111 96 115 141 135 128 130
193 169 179 157 141 142 178 189 109 294 174 180 175 203 113 68 349 310 296 307 309 227 140 122 102 97 83 74 69 81 83 76 42 68 67 57 65 67 79 84 109 128 142 157 171 181 184 185 181 177 200 219 192 172 185 171 165 161 170 166 165 164 162 165 164 167 185 164 128 144 156 132 126 134 158 151 142 134 138 134 123 121 117 109 103 97 92 72 78 129 135 136 146 156 188 153 174